World > North America > United States > Missouri > Stringtown  

Stringtown, MO Hourly Weather Updates

Feedback E-mail the Weather

Quick Clicks

Stringtown, MO Weather Maps

°F °C°F °C
Stringtown Weather Map
UTC Time: 4/22/2024, 23:26
Your Time:

Stringtown, MO Regional Weather

Expires:202404230000;;209585
ASUS43 KEAX 222315
RWREAX

WEATHER ROUNDUP FOR EASTERN KANSAS AND NORTHWEST MISSOURI
NATIONAL WEATHER SERVICE KANSAS CITY/PLEASANT HILL MO
600 PM CDT MON APR 22 2024


MOZ041-047>049-056>058-063>065-088>090-097-230000-
...EASTERN AND SOUTHERN MISSOURI...
  
CITY           SKY/WX    TMP DP  RH WIND       PRES   REMARKS
ST. LOUIS INTL CLOUDY    70  27  20 S12       29.98F                  
SPIRIT OF STL  MOSUNNY   69  27  20 SW13G23   29.96F                  
COLUMBIA       MOSUNNY   68  29  23 SW18G26   29.95F                  
JEFFERSON CITY PTSUNNY   70  29  21 S10       29.95F                  
MEXICO         MOSUNNY   66  30  26 S18       29.94F                  
HANNIBAL       MOSUNNY   68  28  22 S18G26    29.92F                  
ROLLA          PTSUNNY   65  31  28 S21G28    29.99F                  
LEBANON        MOSUNNY   68  30  24 S12G20    30.00F                  
OSAGE BEACH    PTSUNNY   69  29  22 SW14      29.97F                  
SPRINGFIELD    MOSUNNY   68  32  26 S16G26    29.98F                  
BRANSON        SUNNY     68  30  24 S12       30.04F                  
JOPLIN         MOSUNNY   68  35  29 S20G26    29.98F                  
WEST PLAINS    SUNNY     66  29  24 S15G22    30.06F                  

$$


SKY/WX - Weather  TMP - Temperature  DP - Dew Point  RH - Humidity
WIND - Wind Direction/Speed PRES - Barometric Pressure VSB - Visibility
WCI - Wind Chill Index E13G22 Wind - East Wind 13 mph/Gusts of 22 mph

Trending Headlines

Trending Entertainment Headlines

Stringtown Radar Loop

Use the map search tool if you want to place a location marker on the radar map...

Stringtown Quick Facts

National Two Day Weather Forecast


E-mail the Stringtown Weather Forecast

Voice your opinion or tell us about page issues...